Wetterdaten: Dienstag, 24.02.2015
Datum Zeit Temp. A. Feuchte A. Luftdruck Regen Wind Richtung Richtung Sonnenschein ET UV Solar Taupunkt Windchill Windben Empfang
24.02.2015 00:00 3,7 C 89 % 1002,0 hPa 0,3 l/m 0,0 km/h (0 Bft) N-NW 345 0 min 0,000 mm 0,0 UV-I 0 W/m 2,1 C 3,7 C 0,0 km/h (0 Bft) 0,00 %
24.02.2015 00:15 3,7 C 89 % 1002,2 hPa 0,0 l/m 0,0 km/h (0 Bft) SW 229 0 min 0,000 mm 0,0 UV-I 0 W/m 2,1 C 3,7 C 0,0 km/h (0 Bft) 0,00 %
24.02.2015 00:30 3,6 C 89 % 1002,3 hPa 0,0 l/m 0,0 km/h (0 Bft) S-SW 194 0 min 0,000 mm 0,0 UV-I 0 W/m 2,0 C 3,6 C 0,0 km/h (0 Bft) 0,00 %
24.02.2015 00:45 3,4 C 89 % 1002,1 hPa 0,0 l/m 0,0 km/h (0 Bft) S-SW 197 0 min 0,000 mm 0,0 UV-I 0 W/m 1,8 C 3,4 C 0,0 km/h (0 Bft) 0,00 %
24.02.2015 01:00 3,2 C 89 % 1002,2 hPa 0,0 l/m 0,0 km/h (0 Bft) SW 219 0 min 0,000 mm 0,0 UV-I 0 W/m 1,6 C 3,2 C 0,0 km/h (0 Bft) 0,00 %
24.02.2015 01:15 3,1 C 89 % 1002,2 hPa 0,0 l/m 0,0 km/h (0 Bft) SW 215 0 min 0,000 mm 0,0 UV-I 0 W/m 1,5 C 3,1 C 0,0 km/h (0 Bft) 0,00 %
24.02.2015 01:30 3,1 C 88 % 1002,3 hPa 0,0 l/m 0,0 km/h (0 Bft) SW 218 0 min 0,000 mm 0,0 UV-I 0 W/m 1,3 C 3,1 C 0,0 km/h (0 Bft) 0,00 %
24.02.2015 01:45 3,1 C 88 % 1002,1 hPa 0,0 l/m 0,0 km/h (0 Bft) S 191 0 min 0,000 mm 0,0 UV-I 0 W/m 1,3 C 3,1 C 0,0 km/h (0 Bft) 0,00 %
24.02.2015 02:00 3,2 C 87 % 1002,1 hPa 0,0 l/m 0,0 km/h (0 Bft) SW 227 0 min 0,000 mm 0,0 UV-I 0 W/m 1,2 C 3,2 C 0,0 km/h (0 Bft) 0,00 %
24.02.2015 02:15 3,4 C 86 % 1001,8 hPa 0,0 l/m 0,0 km/h (0 Bft) S 174 0 min 0,000 mm 0,0 UV-I 0 W/m 1,3 C 3,4 C 0,0 km/h (0 Bft) 0,00 %
24.02.2015 02:30 3,4 C 87 % 1001,8 hPa 0,0 l/m 0,0 km/h (0 Bft) S-SW 194 0 min 0,000 mm 0,0 UV-I 0 W/m 1,4 C 3,4 C 0,0 km/h (0 Bft) 0,00 %
24.02.2015 02:45 3,3 C 87 % 1001,7 hPa 0,0 l/m 0,0 km/h (0 Bft) W-SW 239 0 min 0,000 mm 0,0 UV-I 0 W/m 1,3 C 3,3 C 0,0 km/h (0 Bft) 0,00 %
24.02.2015 03:00 3,4 C 87 % 1001,9 hPa 0,0 l/m 0,0 km/h (0 Bft) S-SW 213 0 min 0,000 mm 0,0 UV-I 0 W/m 1,4 C 3,4 C 0,0 km/h (0 Bft) 0,00 %
24.02.2015 03:15 3,3 C 87 % 1001,9 hPa 0,0 l/m 0,0 km/h (0 Bft) W-SW 246 0 min 0,000 mm 0,0 UV-I 0 W/m 1,3 C 3,3 C 0,0 km/h (0 Bft) 0,00 %
24.02.2015 03:30 3,3 C 88 % 1002,2 hPa 0,0 l/m 0,0 km/h (0 Bft) W-SW 245 0 min 0,000 mm 0,0 UV-I 0 W/m 1,5 C 3,3 C 0,0 km/h (0 Bft) 0,00 %
24.02.2015 03:45 3,2 C 88 % 1001,8 hPa 0,0 l/m 0,0 km/h (0 Bft) S-SW 209 0 min 0,000 mm 0,0 UV-I 0 W/m 1,4 C 3,2 C 0,0 km/h (0 Bft) 0,00 %
24.02.2015 04:00 3,2 C 88 % 1001,9 hPa 0,0 l/m 0,0 km/h (0 Bft) S 189 0 min 0,000 mm 0,0 UV-I 0 W/m 1,4 C 3,2 C 0,0 km/h (0 Bft) 0,00 %
24.02.2015 04:15 3,1 C 89 % 1001,9 hPa 0,0 l/m 0,0 km/h (0 Bft) S-SW 206 0 min 0,000 mm 0,0 UV-I 0 W/m 1,5 C 3,1 C 0,0 km/h (0 Bft) 0,00 %
24.02.2015 04:30 3,0 C 89 % 1001,7 hPa 0,0 l/m 0,0 km/h (0 Bft) S-SW 199 0 min 0,000 mm 0,0 UV-I 0 W/m 1,4 C 3,0 C 0,0 km/h (0 Bft) 0,00 %
24.02.2015 04:45 2,7 C 89 % 1001,9 hPa 0,0 l/m 0,0 km/h (0 Bft) S-SW 201 0 min 0,000 mm 0,0 UV-I 0 W/m 1,1 C 2,7 C 0,0 km/h (0 Bft) 0,00 %
24.02.2015 05:00 2,5 C 88 % 1002,1 hPa 0,0 l/m 0,0 km/h (0 Bft) S-SW 212 0 min 0,000 mm 0,0 UV-I 0 W/m 0,7 C 2,5 C 0,0 km/h (0 Bft) 0,00 %
24.02.2015 05:15 2,4 C 84 % 1002,3 hPa 0,0 l/m 0,0 km/h (0 Bft) S 189 0 min 0,000 mm 0,0 UV-I 0 W/m -0,0 C 2,4 C 0,0 km/h (0 Bft) 0,00 %
24.02.2015 05:30 2,3 C 89 % 1002,6 hPa 0,0 l/m 0,0 km/h (0 Bft) SW 221 0 min 0,000 mm 0,0 UV-I 0 W/m 0,7 C 2,3 C 0,0 km/h (0 Bft) 0,00 %
24.02.2015 05:45 2,5 C 89 % 1002,8 hPa 0,0 l/m 0,0 km/h (0 Bft) SW 230 0 min 0,000 mm 0,0 UV-I 0 W/m 0,9 C 2,5 C 0,0 km/h (0 Bft) 0,00 %
24.02.2015 06:00 2,5 C 89 % 1003,0 hPa 0,0 l/m 0,0 km/h (0 Bft) S-SW 213 0 min 0,000 mm 0,0 UV-I 0 W/m 0,9 C 2,5 C 0,0 km/h (0 Bft) 0,00 %
24.02.2015 06:15 2,6 C 89 % 1002,9 hPa 0,0 l/m 0,0 km/h (0 Bft) S-SW 204 0 min 0,000 mm 0,0 UV-I 0 W/m 1,0 C 2,6 C 0,0 km/h (0 Bft) 0,00 %
24.02.2015 06:30 2,7 C 89 % 1003,2 hPa 0,0 l/m 0,0 km/h (0 Bft) W-SW 253 0 min 0,000 mm 0,0 UV-I 0 W/m 1,1 C 2,7 C 0,0 km/h (0 Bft) 0,00 %
24.02.2015 06:45 2,8 C 89 % 1003,2 hPa 0,0 l/m 0,0 km/h (0 Bft) SW 217 0 min 0,000 mm 0,0 UV-I 0 W/m 1,2 C 2,8 C 0,0 km/h (0 Bft) 0,00 %
24.02.2015 07:00 2,8 C 89 % 1003,3 hPa 0,0 l/m 0,0 km/h (0 Bft) SW 219 0 min 0,000 mm 0,0 UV-I 0 W/m 1,2 C 2,8 C 0,0 km/h (0 Bft) 0,00 %
24.02.2015 07:15 3,0 C 89 % 1003,6 hPa 0,0 l/m 0,0 km/h (0 Bft) S 180 0 min 0,000 mm 0,0 UV-I 0 W/m 1,4 C 3,0 C 0,0 km/h (0 Bft) 0,00 %
24.02.2015 07:30 3,0 C 88 % 1003,8 hPa 0,0 l/m 0,0 km/h (0 Bft) S 190 0 min 0,000 mm 0,0 UV-I 1 W/m 1,2 C 3,0 C 0,0 km/h (0 Bft) 0,00 %
24.02.2015 07:45 3,2 C 88 % 1004,1 hPa 0,0 l/m 0,0 km/h (0 Bft) SW 230 0 min 0,000 mm 0,0 UV-I 10 W/m 1,4 C 3,2 C 0,0 km/h (0 Bft) 0,00 %
24.02.2015 08:00 3,4 C 86 % 1004,2 hPa 0,0 l/m 0,0 km/h (0 Bft) S-SW 202 0 min 0,000 mm 0,0 UV-I 29 W/m 1,3 C 3,4 C 0,0 km/h (0 Bft) 0,00 %
24.02.2015 08:15 3,6 C 86 % 1004,6 hPa 0,0 l/m 0,0 km/h (0 Bft) S 191 0 min 0,000 mm 0,0 UV-I 32 W/m 1,5 C 3,6 C 0,0 km/h (0 Bft) 0,00 %
24.02.2015 08:30 3,7 C 86 % 1004,6 hPa 0,0 l/m 0,0 km/h (0 Bft) S-SW 202 0 min 0,000 mm 1,0 UV-I 24 W/m 1,6 C 3,7 C 0,0 km/h (0 Bft) 0,00 %
24.02.2015 08:45 3,9 C 85 % 1004,8 hPa 0,0 l/m 0,4 km/h (0 Bft) W-SW 251 0 min 0,000 mm 1,0 UV-I 42 W/m 1,6 C 3,9 C 4,0 km/h (1 Bft) 0,00 %
24.02.2015 09:00 4,1 C 85 % 1004,8 hPa 0,0 l/m 1,4 km/h (1 Bft) W-SW 254 0 min 0,000 mm 1,0 UV-I 46 W/m 1,8 C 4,1 C 4,0 km/h (1 Bft) 0,00 %
24.02.2015 09:15 4,2 C 84 % 1004,9 hPa 0,0 l/m 0,7 km/h (0 Bft) W-SW 254 0 min 0,000 mm 0,0 UV-I 50 W/m 1,7 C 4,2 C 4,0 km/h (1 Bft) 0,00 %
24.02.2015 09:30 4,1 C 83 % 1005,2 hPa 0,0 l/m 4,0 km/h (1 Bft) SW 235 0 min 0,000 mm 0,0 UV-I 35 W/m 1,5 C 4,1 C 7,9 km/h (2 Bft) 0,00 %
24.02.2015 09:45 4,1 C 84 % 1005,3 hPa 0,3 l/m 0,7 km/h (0 Bft) SW 234 0 min 0,000 mm 1,0 UV-I 36 W/m 1,6 C 4,1 C 4,0 km/h (1 Bft) 0,00 %
24.02.2015 10:00 4,1 C 85 % 1005,4 hPa 0,0 l/m 1,8 km/h (1 Bft) S-SW 207 0 min 0,000 mm 1,0 UV-I 57 W/m 1,8 C 4,1 C 4,0 km/h (1 Bft) 0,00 %
24.02.2015 10:15 4,2 C 84 % 1005,5 hPa 0,0 l/m 0,0 km/h (0 Bft) NW 321 0 min 0,000 mm 1,0 UV-I 63 W/m 1,7 C 4,2 C 0,0 km/h (0 Bft) 0,00 %
24.02.2015 10:30 4,2 C 84 % 1005,9 hPa 0,0 l/m 1,8 km/h (1 Bft) SW 230 0 min 0,000 mm 1,0 UV-I 63 W/m 1,7 C 4,2 C 4,0 km/h (1 Bft) 0,00 %
24.02.2015 10:45 4,2 C 84 % 1006,0 hPa 0,3 l/m 4,0 km/h (1 Bft) W-SW 255 0 min 0,000 mm 1,0 UV-I 67 W/m 1,7 C 4,2 C 7,9 km/h (2 Bft) 0,00 %
24.02.2015 11:00 4,2 C 83 % 1006,0 hPa 0,0 l/m 4,7 km/h (1 Bft) W-SW 252 0 min 0,000 mm 1,0 UV-I 79 W/m 1,6 C 4,2 C 7,9 km/h (2 Bft) 0,00 %
24.02.2015 11:15 4,2 C 83 % 1006,3 hPa 0,0 l/m 4,7 km/h (1 Bft) W-SW 256 0 min 0,000 mm 1,0 UV-I 74 W/m 1,6 C 4,2 C 7,9 km/h (2 Bft) 0,00 %
24.02.2015 11:30 4,2 C 84 % 1006,5 hPa 0,3 l/m 0,0 km/h (0 Bft) W-SW 255 0 min 0,000 mm 1,0 UV-I 93 W/m 1,7 C 4,2 C 0,0 km/h (0 Bft) 0,00 %
24.02.2015 11:45 4,2 C 85 % 1006,3 hPa 0,3 l/m 1,8 km/h (1 Bft) W-SW 255 0 min 0,000 mm 1,0 UV-I 88 W/m 1,9 C 4,2 C 4,0 km/h (1 Bft) 0,00 %
24.02.2015 12:00 4,3 C 84 % 1006,4 hPa 0,0 l/m 5,8 km/h (2 Bft) W-NW 291 0 min 0,000 mm 1,0 UV-I 103 W/m 1,8 C 4,3 C 7,9 km/h (2 Bft) 0,00 %
24.02.2015 12:15 4,0 C 84 % 1006,4 hPa 0,3 l/m 6,5 km/h (2 Bft) W-SW 253 0 min 0,000 mm 1,0 UV-I 92 W/m 1,5 C 3,9 C 7,9 km/h (2 Bft) 0,00 %
24.02.2015 12:30 3,7 C 84 % 1006,7 hPa 0,0 l/m 3,2 km/h (1 Bft) SW 230 0 min 0,000 mm 2,0 UV-I 78 W/m 1,3 C 3,7 C 7,9 km/h (2 Bft) 0,00 %
24.02.2015 12:45 3,7 C 84 % 1006,9 hPa 0,3 l/m 4,7 km/h (1 Bft) W-SW 256 0 min 0,000 mm 1,0 UV-I 108 W/m 1,3 C 3,7 C 7,9 km/h (2 Bft) 0,00 %
24.02.2015 13:00 3,7 C 84 % 1007,0 hPa 0,3 l/m 7,9 km/h (2 Bft) W-SW 256 0 min 0,000 mm 1,0 UV-I 107 W/m 1,3 C 2,3 C 11,9 km/h (2 Bft) 0,00 %
24.02.2015 13:15 3,6 C 84 % 1007,3 hPa 0,0 l/m 5,8 km/h (2 Bft) SW 234 0 min 0,000 mm 1,0 UV-I 111 W/m 1,2 C 3,6 C 7,9 km/h (2 Bft) 0,00 %
24.02.2015 13:30 3,5 C 85 % 1007,1 hPa 0,3 l/m 0,4 km/h (0 Bft) W-SW 252 0 min 0,000 mm 1,0 UV-I 96 W/m 1,2 C 3,5 C 4,0 km/h (1 Bft) 0,00 %
24.02.2015 13:45 3,7 C 85 % 1006,9 hPa 0,0 l/m 1,4 km/h (1 Bft) W-SW 254 0 min 0,000 mm 1,0 UV-I 85 W/m 1,4 C 3,7 C 4,0 km/h (1 Bft) 0,00 %
24.02.2015 14:00 4,3 C 84 % 1006,5 hPa 0,0 l/m 3,2 km/h (1 Bft) W-SW 251 0 min 0,000 mm 2,0 UV-I 103 W/m 1,8 C 4,3 C 4,0 km/h (1 Bft) 0,00 %
24.02.2015 14:15 4,7 C 82 % 1006,6 hPa 0,0 l/m 4,3 km/h (1 Bft) SW 228 0 min 0,000 mm 2,0 UV-I 186 W/m 1,9 C 4,7 C 7,9 km/h (2 Bft) 0,00 %
24.02.2015 14:30 4,9 C 81 % 1006,8 hPa 0,0 l/m 3,2 km/h (1 Bft) W-SW 252 0 min 0,000 mm 2,0 UV-I 208 W/m 1,9 C 4,9 C 7,9 km/h (2 Bft) 0,00 %
24.02.2015 14:45 4,8 C 80 % 1007,0 hPa 0,0 l/m 1,8 km/h (1 Bft) W-NW 301 0 min 0,000 mm 2,0 UV-I 146 W/m 1,6 C 4,8 C 4,0 km/h (1 Bft) 0,00 %
24.02.2015 15:00 4,1 C 80 % 1007,5 hPa 0,0 l/m 14,8 km/h (3 Bft) W-SW 254 0 min 0,000 mm 1,0 UV-I 136 W/m 1,0 C -1,9 C 19,8 km/h (3 Bft) 0,00 %
24.02.2015 15:15 3,9 C 81 % 1007,9 hPa 0,0 l/m 9,7 km/h (2 Bft) SW 216 0 min 0,000 mm 1,0 UV-I 102 W/m 0,9 C 1,1 C 11,9 km/h (2 Bft) 0,00 %
24.02.2015 15:30 4,0 C 81 % 1008,0 hPa 0,0 l/m 0,7 km/h (0 Bft) S-SW 196 0 min 0,000 mm 1,0 UV-I 83 W/m 1,0 C 4,0 C 4,0 km/h (1 Bft) 0,00 %
24.02.2015 15:45 4,0 C 82 % 1008,3 hPa 0,0 l/m 5,8 km/h (2 Bft) W-SW 251 0 min 0,000 mm 1,0 UV-I 74 W/m 1,2 C 4,0 C 7,9 km/h (2 Bft) 0,00 %
24.02.2015 16:00 3,9 C 82 % 1008,8 hPa 0,0 l/m 3,2 km/h (1 Bft) W-SW 251 0 min 0,000 mm 1,0 UV-I 66 W/m 1,1 C 3,9 C 4,0 km/h (1 Bft) 0,00 %
24.02.2015 16:15 4,0 C 82 % 1008,7 hPa 0,0 l/m 0,0 km/h (0 Bft) O 101 0 min 0,000 mm 0,0 UV-I 55 W/m 1,2 C 4,0 C 0,0 km/h (0 Bft) 0,00 %
24.02.2015 16:30 3,8 C 82 % 1009,3 hPa 0,0 l/m 1,4 km/h (1 Bft) S 175 0 min 0,000 mm 0,0 UV-I 27 W/m 1,0 C 3,8 C 4,0 km/h (1 Bft) 0,00 %
24.02.2015 16:45 3,5 C 83 % 1009,7 hPa 0,0 l/m 1,8 km/h (1 Bft) NO 53 0 min 0,000 mm 0,0 UV-I 17 W/m 0,9 C 3,5 C 4,0 km/h (1 Bft) 0,00 %
24.02.2015 17:00 3,2 C 83 % 1010,1 hPa 0,3 l/m 9,4 km/h (2 Bft) SW 234 0 min 0,000 mm 0,0 UV-I 5 W/m 0,6 C 0,5 C 11,9 km/h (2 Bft) 0,00 %
24.02.2015 17:15 3,0 C 84 % 1010,5 hPa 0,0 l/m 0,0 km/h (0 Bft) S-SW 201 0 min 0,000 mm 0,0 UV-I 2 W/m 0,6 C 3,0 C 0,0 km/h (0 Bft) 0,00 %
24.02.2015 17:30 2,9 C 84 % 1011,1 hPa 0,0 l/m 0,7 km/h (0 Bft) SW 215 0 min 0,000 mm 0,0 UV-I 0 W/m 0,5 C 2,9 C 4,0 km/h (1 Bft) 0,00 %
24.02.2015 17:45 2,8 C 84 % 1011,0 hPa 0,0 l/m 2,2 km/h (1 Bft) W-SW 256 0 min 0,000 mm 0,0 UV-I 0 W/m 0,4 C 2,8 C 4,0 km/h (1 Bft) 0,00 %
24.02.2015 18:00 2,7 C 83 % 1011,6 hPa 0,0 l/m 0,0 km/h (0 Bft) N-NW 329 0 min 0,000 mm 0,0 UV-I 0 W/m 0,1 C 2,7 C 0,0 km/h (0 Bft) 0,00 %
24.02.2015 18:15 2,6 C 83 % 1011,6 hPa 0,0 l/m 0,0 km/h (0 Bft) W-NW 298 0 min 0,000 mm 0,0 UV-I 0 W/m 0,0 C 2,6 C 0,0 km/h (0 Bft) 0,00 %
24.02.2015 18:30 2,6 C 83 % 1011,8 hPa 0,0 l/m 0,7 km/h (0 Bft) W-SW 250 0 min 0,000 mm 0,0 UV-I 0 W/m 0,0 C 2,6 C 4,0 km/h (1 Bft) 0,00 %
24.02.2015 18:45 2,5 C 83 % 1012,2 hPa 0,0 l/m 0,0 km/h (0 Bft) O 79 0 min 0,000 mm 0,0 UV-I 0 W/m -0,1 C 2,5 C 0,0 km/h (0 Bft) 0,00 %
24.02.2015 19:00 2,5 C 83 % 1012,4 hPa 0,0 l/m 4,7 km/h (1 Bft) SW 234 0 min 0,000 mm 0,0 UV-I 0 W/m -0,1 C 2,5 C 7,9 km/h (2 Bft) 0,00 %
24.02.2015 19:15 2,5 C 83 % 1012,5 hPa 0,0 l/m 0,0 km/h (0 Bft) S 184 0 min 0,000 mm 0,0 UV-I 0 W/m -0,1 C 2,5 C 0,0 km/h (0 Bft) 0,00 %
24.02.2015 19:30 2,5 C 82 % 1012,5 hPa 0,0 l/m 0,7 km/h (0 Bft) O 79 0 min 0,000 mm 0,0 UV-I 0 W/m -0,3 C 2,5 C 4,0 km/h (1 Bft) 0,00 %
24.02.2015 19:45 2,4 C 78 % 1012,8 hPa 0,0 l/m 0,0 km/h (0 Bft) SW 230 0 min 0,000 mm 0,0 UV-I 0 W/m -1,0 C 2,4 C 0,0 km/h (0 Bft) 0,00 %
24.02.2015 20:00 2,3 C 79 % 1012,8 hPa 0,0 l/m 0,0 km/h (0 Bft) SO 137 0 min 0,000 mm 0,0 UV-I 0 W/m -1,0 C 2,3 C 0,0 km/h (0 Bft) 0,00 %
24.02.2015 20:15 2,2 C 79 % 1013,3 hPa 0,0 l/m 0,4 km/h (0 Bft) SW 232 0 min 0,000 mm 0,0 UV-I 0 W/m -1,1 C 2,2 C 4,0 km/h (1 Bft) 0,00 %
24.02.2015 20:30 2,2 C 79 % 1013,2 hPa 0,0 l/m 1,4 km/h (1 Bft) S 172 0 min 0,000 mm 0,0 UV-I 0 W/m -1,1 C 2,2 C 4,0 km/h (1 Bft) 0,00 %
24.02.2015 20:45 2,3 C 78 % 1013,3 hPa 0,0 l/m 0,4 km/h (0 Bft) N-NO 22 0 min 0,000 mm 0,0 UV-I 0 W/m -1,1 C 2,3 C 4,0 km/h (1 Bft) 0,00 %
24.02.2015 21:00 2,2 C 78 % 1013,4 hPa 0,0 l/m 4,0 km/h (1 Bft) W 269 0 min 0,000 mm 0,0 UV-I 0 W/m -1,2 C 2,2 C 7,9 km/h (2 Bft) 0,00 %
24.02.2015 21:15 2,2 C 78 % 1013,8 hPa 0,0 l/m 1,4 km/h (1 Bft) S 174 0 min 0,000 mm 0,0 UV-I 0 W/m -1,2 C 2,2 C 4,0 km/h (1 Bft) 0,00 %
24.02.2015 21:30 2,0 C 78 % 1014,0 hPa 0,0 l/m 0,4 km/h (0 Bft) SW 222 0 min 0,000 mm 0,0 UV-I 0 W/m -1,4 C 2,0 C 4,0 km/h (1 Bft) 0,00 %
24.02.2015 21:45 1,8 C 79 % 1014,1 hPa 0,0 l/m 0,0 km/h (0 Bft) S 182 0 min 0,000 mm 0,0 UV-I 0 W/m -1,4 C 1,8 C 0,0 km/h (0 Bft) 0,00 %
24.02.2015 22:00 1,7 C 78 % 1014,1 hPa 0,0 l/m 3,2 km/h (1 Bft) NO 34 0 min 0,000 mm 0,0 UV-I 0 W/m -1,7 C 1,7 C 7,9 km/h (2 Bft) 0,00 %
24.02.2015 22:15 1,7 C 79 % 1014,4 hPa 0,0 l/m 0,4 km/h (0 Bft) O 85 0 min 0,000 mm 0,0 UV-I 0 W/m -1,5 C 1,7 C 4,0 km/h (1 Bft) 0,00 %
24.02.2015 22:30 1,7 C 78 % 1014,4 hPa 0,0 l/m 0,0 km/h (0 Bft) W 259 0 min 0,000 mm 0,0 UV-I 0 W/m -1,7 C 1,7 C 0,0 km/h (0 Bft) 0,00 %
24.02.2015 22:45 1,7 C 78 % 1014,7 hPa 0,0 l/m 0,4 km/h (0 Bft) S 169 0 min 0,000 mm 0,0 UV-I 0 W/m -1,7 C 1,7 C 4,0 km/h (1 Bft) 0,00 %
24.02.2015 23:00 1,7 C 78 % 1014,8 hPa 0,0 l/m 2,9 km/h (1 Bft) NW 304 0 min 0,000 mm 0,0 UV-I 0 W/m -1,7 C 1,7 C 7,9 km/h (2 Bft) 0,00 %
24.02.2015 23:15 1,7 C 78 % 1014,8 hPa 0,0 l/m 1,4 km/h (1 Bft) W-SW 252 0 min 0,000 mm 0,0 UV-I 0 W/m -1,7 C 1,7 C 4,0 km/h (1 Bft) 0,00 %
24.02.2015 23:30 1,7 C 78 % 1015,0 hPa 0,0 l/m 2,2 km/h (1 Bft) W-SW 253 0 min 0,000 mm 0,0 UV-I 0 W/m -1,7 C 1,7 C 4,0 km/h (1 Bft) 0,00 %
_ Min-Zeit 22:00 19:45 02:45 - 00:00 - - - - - - 22:00 15:00 00:00 00:00
Minimum _ 1,7 C 78 % 1001,7 hPa - 0,0 km/h (0 Bft) - - - - - - -1,7 C -1,9 C 0,0 km/h (0 Bft) 0,00 %
_ Max-Zeit 14:30 00:00 23:30 00:00 15:00 - - 00:00 00:00 12:30 14:30 00:00 14:30 15:00 00:00
Maximum _ 4,9 C 89 % 1015,0 hPa 0,3 l/m 14,8 km/h
W-SW (3 Bft)
- - 0 min 0,000 mm 2,0 UV-I 208 W/m 2,1 C 4,9 C 19,8 km/h
W-SW (3 Bft)
0,00 %
Durchschnitt _ 3,2 C 84 % 1007,0 hPa #3,0 l/m 1,6 km/h (1 Bft) W-SW - #0 min. #0,000 mm 1,2 UV-I 72 W/m 0,8 C 3,1 C 3,1 km/h (1 Bft) 0,00 %